Boone Observed Data For Previous 48 Hours

Caption
Day and Hour Reservoir Elevation (behind dam)* Tailwater Elevation (below dam)* Average Hourly Discharge*
1/17/2018 2 AM EST 1,353.23 1,263.09 3,406
1/17/2018 3 AM EST 1,353.20 1,263.08 3,454
1/17/2018 4 AM EST 1,353.19 1,263.17 3,510
1/17/2018 5 AM EST 1,353.16 1,263.04 3,608
1/17/2018 6 AM EST 1,353.09 1,263.14 3,524
1/17/2018 7 AM EST 1,353.03 1,263.08 3,475
1/17/2018 8 AM EST 1,353.00 1,263.08 3,325
1/17/2018 9 AM EST 1,352.98 1,263.16 3,312
1/17/2018 10 AM EST 1,352.96 1,263.14 3,503
1/17/2018 11 AM EST 1,352.93 1,263.10 3,195
1/17/2018 12 PM EST 1,352.90 1,262.81 3,035
1/17/2018 1 PM EST 1,352.95 1,260.73 51
1/17/2018 2 PM EST 1,353.04 1,260.38 0
1/17/2018 3 PM EST 1,353.05 1,262.20 166
1/17/2018 4 PM EST 1,353.09 1,262.93 3,053
1/17/2018 5 PM EST 1,353.05 1,263.19 3,351
1/17/2018 6 PM EST 1,353.00 1,262.85 3,491
1/17/2018 7 PM EST 1,352.94 1,263.03 3,442
1/17/2018 8 PM EST 1,352.90 1,262.95 3,276
1/17/2018 9 PM EST 1,352.89 1,263.01 3,277
1/17/2018 10 PM EST 1,352.84 1,263.07 3,282
1/17/2018 11 PM EST 1,352.80 1,262.85 3,310
1/18/2018 12 AM EST 1,352.85 1,260.29 47
1/18/2018 1 AM EST 1,352.94 1,260.24 0
1/18/2018 2 AM EST 1,353.03 1,260.23 0
1/18/2018 3 AM EST 1,353.13 1,260.23 0
1/18/2018 4 AM EST 1,353.17 1,262.20 169
1/18/2018 5 AM EST 1,353.15 1,263.35 3,255
1/18/2018 6 AM EST 1,353.01 1,264.66 6,534
1/18/2018 7 AM EST 1,352.83 1,264.63 7,109
1/18/2018 8 AM EST 1,352.61 1,265.10 7,762
1/18/2018 9 AM EST 1,352.43 1,264.62 7,049
1/18/2018 10 AM EST 1,352.38 1,262.97 4,686
1/18/2018 11 AM EST 1,352.38 1,260.43 1,666
1/18/2018 12 PM EST 1,352.45 1,260.42 7
1/18/2018 1 PM EST 1,352.50 1,260.24 0
1/18/2018 2 PM EST 1,352.58 1,260.22 0
1/18/2018 3 PM EST 1,352.66 1,260.22 0
1/18/2018 4 PM EST 1,352.73 1,260.22 0
1/18/2018 5 PM EST 1,352.74 1,262.23 173
1/18/2018 6 PM EST 1,352.76 1,263.17 3,635
1/18/2018 7 PM EST 1,352.71 1,263.00 3,586
1/18/2018 8 PM EST 1,352.68 1,263.13 3,380
1/18/2018 9 PM EST 1,352.61 1,262.86 3,422
1/18/2018 10 PM EST 1,352.66 1,260.28 49
1/18/2018 11 PM EST 1,352.76 1,260.23 0
1/19/2018 12 AM EST 1,352.83 1,260.22 0

Elevations are in feet above sea level. Discharges are in cubic feet per second and are reported at the end of the hour.